Date,TemperatureHighF,TemperatureAvgF,TemperatureLowF,DewpointHighF,DewpointAvgF,DewpointLowF,HumidityHigh,HumidityAvg,HumidityLow,PressureMaxIn,PressureMinIn,WindSpeedMaxMPH,WindSpeedAvgMPH,GustSpeedMaxMPH,PrecipitationSumIn
2013-1-1,38.5,31.6,23.4,37.2,28.2,18.7,95,87,79,30.32,30.07,7,1,16,0.00
2013-1-2,42.1,25.8,18.0,27.6,21.3,15.6,91,83,59,30.32,29.49,4,0,11,0.01
2013-1-3,52.7,35.1,22.5,30.7,24.3,20.3,92,68,33,30.48,29.73,7,1,10,0.00
2013-1-4,52.9,36.0,20.7,27.4,22.8,18.2,91,63,30,30.48,30.33,9,2,16,0.00
2013-1-5,52.9,40.9,30.6,33.5,29.5,23.5,89,65,42,30.34,30.18,12,3,21,0.00
2013-1-6,58.3,36.0,24.4,29.8,22.1,15.9,89,62,19,30.40,30.29,4,1,7,0.00
2013-1-7,56.7,39.2,23.0,29.3,24.6,18.9,85,58,32,30.37,30.12,14,3,21,0.00
2013-1-8,60.4,46.4,34.9,44.8,34.6,25.3,93,65,39,30.21,30.05,10,3,18,0.30
2013-1-9,55.2,50.4,46.4,46.6,43.9,38.7,95,80,55,30.34,30.17,8,3,17,0.06
2013-1-10,58.5,52.5,49.1,54.6,49.4,43.4,95,89,73,30.17,29.82,7,3,14,0.20
2013-1-11,72.9,65.9,61.3,49.5,46.3,43.6,63,50,35,29.83,29.69,12,6,25,0.20
2013-1-12,61.3,40.4,25.9,50.7,28.7,20.0,89,66,24,30.13,29.83,9,3,23,0.20
2013-1-13,38.3,26.8,19.6,20.5,15.4,10.6,79,63,39,30.41,30.03,0,0,0,0.04
2013-1-14,41.4,27.8,18.5,17.5,14.2,10.9,83,59,31,30.50,30.34,8,1,13,0.02
2013-1-15,36.9,28.1,20.1,20.7,15.0,9.6,84,60,34,30.35,30.21,6,2,17,0.00
2013-1-16,54.5,32.6,17.6,21.9,15.7,11.3,87,56,20,30.24,30.12,9,2,12,0.00
2013-1-17,59.7,41.7,26.6,32.2,26.9,19.4,78,59,28,30.50,30.22,9,2,17,0.00
2013-1-18,61.3,45.7,28.9,32.8,28.6,24.7,85,55,27,30.51,30.20,14,5,23,0.00
2013-1-19,71.4,52.4,41.0,36.2,33.8,31.1,76,52,23,30.22,30.09,11,4,18,0.00
2013-1-20,71.8,51.2,33.1,41.3,30.7,16.2,77,46,30,30.32,30.12,11,3,24,0.00
2013-1-21,47.8,34.3,24.6,16.6,13.9,9.3,61,45,22,30.44,30.30,8,3,24,0.00
2013-1-22,59.2,38.9,23.5,28.0,21.8,15.5,74,52,29,30.34,30.18,11,3,16,0.00
2013-1-23,67.6,46.8,29.3,42.6,33.7,23.5,81,62,37,30.27,30.13,8,2,12,0.00
2013-1-24,47.7,40.5,36.1,38.0,22.8,18.3,69,49,40,30.30,30.12,9,3,19,0.00
2013-1-25,56.5,42.8,33.1,29.7,26.1,21.6,66,52,31,30.26,30.14,4,1,10,0.00
2013-1-26,56.1,46.1,32.7,35.2,30.1,25.8,77,54,37,30.27,30.09,11,4,18,0.00
2013-1-27,61.9,55.2,46.4,56.6,50.5,34.4,94,84,61,30.11,29.89,15,6,24,0.00
2013-1-28,75.9,68.9,59.0,62.7,61.1,55.8,89,77,61,29.95,29.77,17,7,25,0.00
2013-1-29,72.1,59.1,42.4,62.7,54.1,37.3,95,84,60,29.77,29.46,16,5,25,0.92
2013-1-30,43.5,37.5,27.1,37.8,27.2,22.1,86,67,45,30.09,29.62,13,5,27,0.00
2013-1-31,57.6,34.6,23.2,28.5,20.6,9.4,87,59,29,30.48,30.03,12,3,24,0.00
2013-2-1,48.7,31.0,17.6,22.1,10.6,-0.2,64,44,23,30.49,30.17,11,3,17,0.00
2013-2-2,64.2,43.6,26.6,32.1,26.6,20.9,80,55,25,30.30,30.18,8,1,14,0.00
2013-2-3,60.6,48.6,33.4,29.9,24.6,17.9,77,43,20,30.33,29.52,9,2,15,0.00
2013-2-4,73.6,58.7,45.0,39.5,31.7,23.5,64,38,16,29.99,29.83,8,4,15,0.00
2013-2-5,76.5,51.8,32.7,41.5,32.1,21.6,80,53,14,30.06,29.93,4,1,10,0.00
2013-2-6,67.3,54.3,39.6,51.0,40.4,32.0,75,60,46,30.07,29.91,13,4,22,0.00
2013-2-7,62.4,52.9,43.5,54.2,46.0,35.5,86,77,68,30.17,29.85,10,4,21,0.01
2013-2-8,58.5,42.8,35.1,35.5,31.8,28.8,80,66,37,30.35,30.17,8,2,14,0.00
2013-2-9,44.6,41.9,39.4,41.1,34.8,32.3,88,76,64,30.18,29.76,14,6,24,0.06
2013-2-10,64.9,53.8,43.7,47.0,29.7,17.9,93,46,18,30.08,29.65,14,5,23,0.17
2013-2-11,60.4,44.4,31.3,36.0,24.5,17.4,79,49,20,30.25,29.85,9,2,16,0.17
2013-2-12,43.0,37.9,0.0,34.8,30.1,24.8,91,70,54,30.14,29.97,6,2,13,0.20
2013-2-13,59.4,42.7,34.3,36.6,32.7,27.6,92,71,30,30.07,29.22,11,3,14,0.01
2013-2-14,65.7,48.2,31.5,33.9,29.5,24.9,81,51,27,30.23,29.24,10,2,19,0.00
2013-2-15,50.0,39.0,30.2,30.9,17.3,2.1,71,45,15,30.43,30.23,9,3,21,0.00
2013-2-16,49.3,37.8,26.4,26.8,14.9,6.0,73,41,20,30.41,30.09,11,3,19,0.00
2013-2-17,72.5,53.8,37.0,33.0,26.6,19.9,65,39,16,30.09,29.79,17,6,29,0.00
2013-2-18,63.3,55.8,39.7,50.0,37.0,24.3,69,51,33,30.17,29.66,19,8,34,0.00
2013-2-19,59.7,42.8,27.7,25.0,21.3,16.2,77,45,19,30.38,30.17,8,2,12,0.00
2013-2-20,41.0,35.6,32.2,32.0,27.3,18.8,91,74,44,30.30,30.02,10,3,17,0.24
2013-2-21,36.1,33.6,27.3,34.0,30.5,19.2,95,89,71,30.02,29.69,11,4,21,0.73
2013-2-22,43.5,31.1,21.4,35.9,18.6,15.8,80,61,36,30.17,29.60,9,2,18,1.16
2013-2-23,54.5,35.3,22.1,25.6,19.9,15.6,80,56,26,29.90,29.72,7,1,9,0.00
2013-2-24,62.4,47.1,32.7,38.4,31.3,23.3,71,55,39,29.74,29.52,16,5,27,0.00
2013-2-25,48.4,39.9,33.1,37.3,34.4,31.3,94,82,60,29.59,29.25,12,4,24,1.16
2013-2-26,43.2,37.5,32.9,33.0,31.1,27.7,93,78,64,29.69,29.27,12,4,25,0.33
2013-2-27,51.3,38.3,30.2,31.2,27.4,23.4,87,67,36,29.93,29.68,14,4,23,0.00
2013-2-28,51.3,43.1,36.0,31.1,27.0,23.9,64,53,35,30.00,29.81,11,5,22,0.00
2013-3-1,41.7,36.3,31.5,26.3,22.7,15.8,66,58,45,30.11,29.98,10,4,21,0.00
2013-3-2,53.8,38.4,26.8,21.6,17.9,0.7,69,46,12,30.16,29.95,10,3,16,0.00
2013-3-3,66.0,49.3,34.0,32.6,25.2,18.8,61,41,21,29.95,29.45,14,6,24,0.00
2013-3-4,80.1,60.4,45.9,42.1,37.3,31.7,65,45,19,29.74,29.33,17,4,27,0.00
2013-3-5,53.1,43.3,36.1,36.1,22.4,14.9,83,46,22,30.15,29.74,16,6,28,0.08
2013-3-6,36.5,33.4,30.7,21.5,20.0,18.1,61,57,54,30.18,30.14,5,2,9,0.00
2013-3-8,59.4,59.0,57.9,40.4,37.5,33.8,50,45,42,30.06,29.99,78,10,78,0.02
2013-3-9,64.4,59.1,55.0,57.6,48.7,35.2,94,70,40,29.99,29.67,27,9,27,0.44
2013-3-10,57.6,45.3,32.9,53.0,38.6,22.6,91,78,63,30.07,29.64,21,7,21,151.30
2013-3-11,57.7,40.3,29.3,24.7,19.3,2.8,76,48,11,30.07,29.98,17,6,19,0.00
2013-3-12,64.8,49.3,38.3,37.1,25.7,19.0,67,42,18,30.37,30.06,17,4,17,0.00
2013-3-13,43.3,42.6,42.6,22.7,21.3,21.2,44,42,42,30.37,30.37,5,3,5,0.00
2013-3-14,42.8,41.3,39.6,33.7,33.3,32.9,77,73,69,30.15,30.11,14,10,14,0.00
2013-3-15,41.9,41.3,40.8,35.5,34.6,33.7,81,77,73,30.09,29.91,15,10,15,0.04
2013-3-16,77.7,63.9,35.2,49.6,43.5,25.4,79,49,33,29.99,29.77,12,5,25,0.02
2013-3-17,49.5,46.0,44.2,41.4,37.9,37.2,89,73,65,29.87,29.74,9,4,20,0.00
2013-3-18,45.3,43.1,40.5,41.9,39.1,27.3,92,86,53,30.06,29.71,7,2,18,0.00
2013-3-19,62.6,49.7,37.6,29.3,25.6,18.0,68,42,23,30.27,30.03,11,3,18,0.00
2013-3-20,57.6,45.8,35.2,33.1,23.8,13.8,82,47,18,30.42,30.09,8,3,16,0.00
2013-3-21,43.5,40.7,38.3,33.8,26.1,17.6,82,57,35,30.09,29.75,14,6,24,0.03
2013-3-22,49.3,42.8,37.0,37.8,36.3,34.2,93,78,62,29.93,29.80,7,3,12,0.33
2013-3-23,43.5,41.5,38.5,41.4,38.4,35.4,94,89,79,29.92,29.73,8,2,14,0.04
2013-3-24,43.0,36.1,32.4,36.3,25.6,17.8,93,67,38,30.19,29.77,15,6,24,0.02
2013-3-25,42.6,34.6,28.6,22.5,19.0,14.2,71,54,36,30.40,30.18,11,4,21,0.00
2013-3-26,55.8,39.5,22.3,23.5,19.2,14.2,84,48,19,30.47,30.28,6,2,10,0.00
2013-3-27,69.4,52.3,36.1,31.5,25.2,21.7,58,37,19,30.29,30.07,15,5,21,0.00
2013-3-28,75.6,61.9,49.3,51.1,41.1,27.0,60,47,32,30.19,30.05,10,5,17,0.00
2013-3-29,73.8,63.6,53.8,57.7,54.1,49.1,90,72,55,30.14,30.05,11,4,17,0.07
2013-3-30,78.8,65.6,55.0,60.3,55.6,51.4,92,71,50,30.07,29.82,10,4,18,0.25
2013-3-31,75.9,62.1,52.9,58.1,47.5,39.0,93,64,28,30.00,29.87,10,2,21,0.00
2013-4-1,64.4,52.3,45.5,44.4,39.9,29.5,84,64,42,30.16,29.98,11,3,21,0.37
2013-4-2,45.7,41.2,38.7,39.0,35.5,28.6,92,81,53,30.24,30.15,10,4,19,0.49
2013-4-3,44.2,41.5,39.6,38.8,34.4,29.3,93,76,57,30.24,30.16,7,2,13,0.47
2013-4-4,65.5,54.5,40.5,41.7,35.7,30.6,93,52,28,30.19,30.08,6,1,12,0.23
2013-4-5,73.2,56.3,37.0,43.7,39.5,34.9,93,58,26,30.21,29.95,10,3,15,0.00
2013-4-6,79.3,66.2,57.4,51.1,47.4,41.0,67,52,32,29.95,29.78,19,6,30,0.00
2013-4-8,74.5,73.2,72.5,60.6,60.3,59.9,65,64,62,29.68,29.65,11,6,18,0.00
2013-4-9,80.1,72.7,47.8,64.6,60.4,40.8,77,66,54,29.83,29.64,12,6,27,0.01
2013-4-10,47.7,39.1,36.3,41.0,34.9,30.2,90,85,77,29.98,29.79,11,5,20,0.41
2013-4-11,58.3,44.6,34.3,34.7,28.5,23.5,77,56,31,29.96,29.77,9,4,17,0.00
2013-4-12,67.3,52.1,37.9,34.9,30.5,26.2,84,48,22,30.03,29.83,9,2,17,0.00
2013-4-13,77.0,62.4,47.5,48.2,42.6,33.1,87,50,29,30.06,29.73,14,4,19,0.20
2013-4-14,83.1,70.9,59.0,57.7,50.6,43.2,64,50,32,29.74,29.49,15,5,23,0.00
2013-4-15,79.9,64.1,54.3,56.7,43.9,33.1,68,49,32,29.87,29.69,12,4,21,0.00
2013-4-16,63.3,54.6,51.1,51.3,46.4,41.7,85,74,64,29.99,29.83,8,3,14,0.00
2013-4-17,83.8,69.6,52.5,68.9,60.5,47.3,94,74,54,29.93,29.55,18,5,30,0.13
2013-4-18,66.2,46.7,41.7,64.6,37.7,25.2,96,72,51,30.10,29.51,14,6,24,1.12
2013-4-19,65.7,52.3,35.1,37.4,26.2,13.6,69,40,16,30.17,30.03,11,4,19,0.00
2013-4-20,74.3,58.5,41.5,40.1,33.6,20.5,79,45,14,30.16,30.01,11,3,22,0.00
2013-4-21,72.3,64.3,54.9,45.1,39.6,34.3,65,42,25,30.21,30.08,12,4,23,0.00
2013-4-22,78.6,65.1,51.1,52.2,45.4,40.6,69,50,35,30.14,29.84,14,5,24,0.00
2013-4-23,69.1,45.5,37.0,54.9,40.8,32.2,92,84,50,30.22,29.81,9,4,18,0.17
2013-4-24,61.9,48.0,34.3,33.6,27.3,20.1,84,50,21,30.32,30.19,8,2,15,0.00
2013-4-25,72.9,58.3,35.2,37.9,29.0,16.0,85,40,12,30.37,30.16,11,2,18,0.00
2013-4-26,63.0,59.7,54.3,48.9,42.0,37.0,82,53,38,30.19,30.10,11,4,16,0.08
2013-4-27,56.3,56.1,55.8,50.9,50.2,49.6,82,80,79,30.06,30.04,1,0,3,0.00
2013-4-28,55.9,55.8,55.6,50.4,49.8,49.3,82,80,79,30.05,30.03,2,0,4,0.00
2013-4-29,90.3,83.2,73.9,56.7,53.0,47.8,54,36,28,29.77,29.71,15,6,23,0.00
2013-4-30,86.9,76.3,64.2,59.7,54.3,44.8,75,49,24,29.82,29.73,14,5,28,0.00
2013-5-1,85.3,72.6,65.1,64.2,60.3,51.6,81,66,46,29.95,29.81,10,4,16,0.00
2013-5-2,64.9,46.0,37.4,49.8,39.5,35.1,92,79,58,30.26,29.96,11,5,11,0.15
2013-5-3,63.0,56.0,42.6,34.7,26.2,21.0,73,34,21,30.11,29.86,15,5,21,0.00
2013-5-4,50.4,45.5,40.8,45.3,39.4,32.2,91,80,53,29.93,29.79,8,2,8,0.13
2013-5-5,62.6,52.1,44.2,49.5,45.7,41.4,93,80,61,30.03,29.93,8,2,8,0.01
2013-5-6,73.2,56.8,44.8,53.8,49.6,43.2,97,79,44,30.02,29.89,5,1,8,0.00
2013-5-7,82.2,66.1,48.4,55.9,50.5,41.5,96,63,26,29.98,29.83,8,2,8,0.00
2013-5-8,86.4,73.4,62.2,63.0,53.9,46.9,89,52,33,29.90,29.74,12,4,12,0.05
2013-5-9,75.4,66.1,58.6,66.0,61.9,56.6,97,87,63,29.88,29.74,11,2,11,0.45
2013-5-10,77.9,66.9,56.8,65.1,57.9,51.6,98,75,47,29.96,29.80,7,2,7,0.07
2013-5-11,83.1,65.2,50.0,67.3,48.6,27.3,96,61,18,30.12,29.96,8,2,8,0.12
2013-5-12,77.5,62.7,44.4,45.3,37.6,27.9,85,45,18,30.26,30.11,9,2,9,0.00
2013-5-13,91.2,74.0,57.7,60.4,48.9,41.9,61,43,24,30.14,30.01,9,3,10,0.00
2013-5-14,91.8,79.0,63.7,57.4,52.1,48.2,62,41,26,30.06,29.92,13,4,13,0.00
2013-5-15,76.1,71.2,63.9,68.2,62.9,52.2,97,76,46,29.98,29.82,10,4,10,0.55
2013-5-16,79.5,68.7,63.0,67.8,63.2,60.8,96,84,58,29.89,29.80,6,2,6,0.16
2013-5-17,83.7,72.2,61.9,70.2,65.9,61.3,98,81,60,29.93,29.85,8,2,11,0.00
2013-5-18,88.9,79.0,71.6,75.4,71.8,69.4,93,80,60,29.88,29.74,11,4,11,0.00
2013-5-19,83.1,80.8,76.6,71.1,68.8,67.1,76,67,62,29.71,29.57,16,6,16,0.00
2013-5-20,85.1,77.4,72.7,72.7,69.4,66.2,85,77,65,29.77,29.63,15,4,15,0.00
2013-5-21,72.5,64.0,57.0,66.9,59.8,55.4,96,87,74,29.90,29.64,13,2,13,0.48
2013-5-22,83.3,68.9,55.0,60.3,56.1,52.9,98,68,37,29.93,29.80,6,1,6,0.00
2013-5-23,68.2,62.7,59.5,61.9,59.1,54.9,97,88,69,30.14,29.92,7,1,7,0.26
2013-5-24,80.2,70.3,59.2,66.2,61.7,57.2,98,76,60,30.21,30.10,9,4,9,0.01
2013-5-25,85.1,75.0,65.3,70.0,63.6,57.2,82,68,53,30.19,30.01,10,4,11,0.00
2013-5-26,85.8,77.0,69.1,70.7,67.7,64.8,88,74,56,30.08,29.92,11,4,16,0.00
2013-5-27,80.1,78.9,77.9,68.9,68.3,67.5,71,70,68,29.78,29.73,9,6,9,0.00
2013-5-28,82.6,78.7,74.5,69.1,67.2,65.8,80,68,59,29.81,29.72,15,7,15,0.00
2013-5-29,79.7,75.6,66.7,69.1,66.8,62.1,93,75,67,29.83,29.68,12,5,12,0.20
2013-5-30,84.0,73.1,64.9,73.2,68.5,63.5,98,86,67,29.78,29.63,15,5,15,1.07
2013-5-31,88.5,81.4,73.4,74.7,72.5,70.5,94,75,60,29.77,29.59,14,5,18,0.01
2013-6-1,84.2,73.1,64.9,71.2,61.2,51.8,96,70,34,30.02,29.66,11,2,11,0.07
2013-6-2,76.6,66.9,59.5,57.9,54.9,51.6,86,66,48,30.09,30.00,7,2,7,0.00
2013-6-3,81.9,70.3,55.8,65.8,59.1,53.4,93,70,48,30.04,29.85,8,3,8,0.45
2013-6-4,85.1,75.2,66.0,68.7,65.9,62.1,96,74,53,29.99,29.78,11,3,11,0.40
2013-6-5,74.8,70.7,65.7,68.0,66.2,64.2,98,86,76,29.99,29.85,7,2,7,0.67
2013-6-6,81.5,72.6,61.3,65.5,59.0,51.3,91,65,38,29.97,29.91,7,2,8,0.00
2013-6-7,86.7,72.7,56.8,61.2,55.8,52.3,95,60,32,30.01,29.91,4,1,10,1.15
2013-6-8,84.9,75.2,62.2,63.7,58.9,54.7,82,58,39,29.94,29.79,10,3,10,0.00
2013-6-9,92.5,80.1,66.2,65.5,60.3,51.6,87,54,27,29.91,29.79,9,2,9,0.00
2013-6-10,96.4,84.4,72.0,70.0,66.0,58.1,78,56,34,29.93,29.84,11,3,11,0.00
2013-6-11,94.8,85.6,75.0,72.3,68.6,64.6,75,58,39,29.97,29.87,13,5,13,0.00
2013-6-12,95.2,86.0,77.5,73.8,70.4,66.7,81,61,41,29.97,29.88,15,6,15,0.00
2013-6-13,98.4,86.3,75.9,72.7,70.2,67.5,86,60,39,30.03,29.92,6,2,6,0.00
2013-6-14,95.5,83.9,76.6,76.5,71.6,68.0,78,67,50,30.00,29.93,8,2,11,0.00
2013-6-15,87.8,80.0,74.1,76.3,73.3,69.3,91,80,63,30.01,29.93,9,3,21,0.04
2013-6-16,94.6,78.8,68.9,78.3,71.7,65.8,96,81,50,30.00,29.88,8,2,10,0.76
2013-6-17,84.2,74.1,67.5,71.6,67.8,65.7,99,82,59,30.01,29.83,12,2,12,0.60
2013-6-18,91.4,78.5,66.2,70.5,66.4,59.2,98,70,37,30.04,29.93,6,2,6,0.00
2013-6-19,88.0,78.9,65.8,70.5,67.5,64.0,95,70,51,30.04,29.93,10,2,10,0.00
2013-6-20,93.6,83.7,73.6,76.5,71.7,66.9,81,68,54,30.02,29.91,13,4,20,0.00
2013-6-21,94.6,85.4,77.9,74.1,71.2,65.5,83,64,39,30.04,29.95,11,4,11,0.00
2013-6-22,93.0,84.6,75.9,72.7,69.5,64.6,83,62,42,30.01,29.87,11,4,11,0.00
2013-6-23,93.7,85.3,77.9,73.2,70.4,67.5,81,62,44,29.94,29.86,11,6,13,0.00
2013-6-24,92.8,84.8,76.6,73.0,69.8,64.9,82,62,43,30.02,29.89,11,5,20,0.00
2013-6-25,90.1,84.2,78.3,73.6,71.6,69.4,80,66,54,29.93,29.79,13,5,13,0.00
2013-6-26,96.8,87.2,79.2,77.2,72.9,68.0,74,63,50,29.91,29.80,11,4,11,0.00
2013-7-22,85.1,84.5,84.0,74.8,74.2,73.9,74,71,70,29.91,29.90,0,0,0,0.00
2013-7-23,108.0,91.3,75.2,79.0,74.2,71.6,91,61,34,29.96,29.83,4,0,4,0.18